,,Stat1,,Stat2,,Stat3,,Stat4,,Wind1,,Wind1,
time,status,PR1M_SUM,status,RH1M_AVG,status,SR1M_AVG,status,TA1M_AVG,status,W1dAve1m,status,W1sAve1m,
1999-11-05, 00:01:00,VALID,0,VALID,99.7345,VALID,0,VALID,19.2132,VALID,81,VALID,0.969922,
1999-11-05, 00:02:00,VALID,0,VALID,99.7625,VALID,-0.0169808,VALID,19.2364,VALID,83,VALID,0.855469,
1999-11-05, 00:03:00,VALID,0,VALID,99.7447,VALID,0,VALID,19.22,VALID,84,VALID,1.33121,
1999-11-05, 00:04:00,VALID,0,VALID,99.7345,VALID,0,VALID,19.2167,VALID,92,VALID,2.49363,
1999-11-05, 00:05:01,VALID,0,VALID,99.7472,VALID,0.0339617,VALID,19.2493,VALID,351,VALID,0.865039,
1999-11-05, 00:06:01,VALID,0,VALID,99.6938,VALID,0,VALID,19.2301,VALID,316,VALID,0.214343,
1999-11-05, 00:07:00,VALID,0,VALID,99.6747,VALID,0,VALID,19.2204,VALID,347,VALID,0.194712,
1999-11-05, 00:08:00,VALID,0,VALID,99.7052,VALID,-0.0169808,VALID,19.2167,VALID,100,VALID,0.963894,
1999-11-05, 00:09:00,VALID,0,VALID,99.7599,VALID,0,VALID,19.2297,VALID,96,VALID,0.932644,
1999-11-05, 00:10:00,VALID,0,VALID,99.7841,VALID,0,VALID,19.2558,VALID,102,VALID,1.03639,
1999-11-05, 00:11:00,VALID,0,VALID,99.8121,VALID,0,VALID,19.2756,VALID,100,VALID,1.24905,
1999-11-05, 00:12:00,VALID,0,VALID,99.7993,VALID,0,VALID,19.2684,VALID,6,VALID,0.697846,
1999-11-05, 00:13:00,VALID,0,VALID,99.7612,VALID,0,VALID,19.2426,VALID,115,VALID,0.700195,
1999-11-05, 00:14:00,VALID,0,VALID,99.7701,VALID,0,VALID,19.2398,VALID,92,VALID,1.06497,
1999-11-05, 00:15:00,VALID,0,VALID,99.7968,VALID,0,VALID,19.2426,VALID,84,VALID,1.22512,
1999-11-05, 00:16:00,VALID,0,VALID,99.7459,VALID,-0.0169808,VALID,19.2137,VALID,88,VALID,1.3896,
1999-11-05, 00:17:01,VALID,0,VALID,99.7739,VALID,0.0169808,VALID,19.2239,VALID,104,VALID,0.563477,
1999-11-05, 00:18:00,VALID,0,VALID,99.8171,VALID,0,VALID,19.2426,VALID,105,VALID,0.165865,
1999-11-05, 00:19:00,VALID,0,VALID,99.8299,VALID,-0.0169808,VALID,19.2689,VALID,72,VALID,0.475561,
1999-11-05, 00:20:00,VALID,0.2,VALID,99.8311,VALID,0,VALID,19.2724,VALID,77,VALID,1.11423,
1999-11-05, 00:21:00,VALID,0,VALID,99.8095,VALID,0,VALID,19.2659,VALID,330,VALID,0.955236,
1999-11-05, 00:22:00,VALID,0,VALID,99.7714,VALID,0,VALID,19.2103,VALID,271,VALID,0.584087,
1999-11-05, 00:23:00,VALID,0,VALID,99.779,VALID,0,VALID,19.2202,VALID,252,VALID,0.313262,
1999-11-05, 00:24:00,VALID,0,VALID,99.8057,VALID,0,VALID,19.2073,VALID,275,VALID,0.0179476,
1999-11-05, 00:25:00,VALID,0,VALID,99.8273,VALID,0.0169808,VALID,19.207,VALID,201,VALID,0.00585938,
1999-11-05, 00:26:00,VALID,0,VALID,99.8642,VALID,0,VALID,19.2267,VALID,104,VALID,0.335526,
1999-11-05, 00:27:00,VALID,0,VALID,99.8756,VALID,0,VALID,19.2294,VALID,99,VALID,1.06394,
1999-11-05, 00:28:00,VALID,0,VALID,99.8833,VALID,0,VALID,19.2458,VALID,90,VALID,1.00884,
1999-11-05, 00:29:00,VALID,0,VALID,99.8985,VALID,0,VALID,19.2692,VALID,48,VALID,0.248242,
1999-11-05, 00:30:00,VALID,0,VALID,99.8947,VALID,0,VALID,19.2655,VALID,95,VALID,0.020633,
1999-11-05, 00:31:00,VALID,0,VALID,99.8807,VALID,0,VALID,19.2627,VALID,42,VALID,0.466146,
1999-11-05, 00:32:00,VALID,0,VALID,99.8655,VALID,0,VALID,19.2465,VALID,312,VALID,0.0544764,
1999-11-05, 00:33:00,VALID,0,VALID,99.8756,VALID,0,VALID,19.2301,VALID,187,VALID,0.594984,
1999-11-05, 00:34:00,VALID,0,VALID,99.8998,VALID,-0.0169808,VALID,19.2431,VALID,105,VALID,0.911184,
1999-11-05, 00:35:00,VALID,0,VALID,99.9214,VALID,0,VALID,19.2394,VALID,95,VALID,1.91254,
1999-11-05, 00:36:00,VALID,0,VALID,99.9125,VALID,-0.0169808,VALID,19.2433,VALID,120,VALID,0.889147,
1999-11-05, 00:37:00,VALID,0,VALID,99.8922,VALID,-0.0509425,VALID,19.2366,VALID,271,VALID,0.703711,
1999-11-05, 00:38:00,VALID,0,VALID,99.8553,VALID,-0.0339617,VALID,19.211,VALID,250,VALID,0.664679,
1999-11-05, 00:39:00,VALID,0,VALID,99.8502,VALID,-0.0339617,VALID,19.1918,VALID,211,VALID,0.339433,
1999-11-05, 00:40:00,VALID,0,VALID,99.868,VALID,0,VALID,19.1622,VALID,335,VALID,0.669202,
1999-11-05, 00:41:00,VALID,0,VALID,99.8655,VALID,0.0169808,VALID,19.1523,VALID,67,VALID,1.05293,
1999-11-05, 00:42:00,VALID,0,VALID,99.896,VALID,-0.0509425,VALID,19.1791,VALID,296,VALID,0.517027,
1999-11-05, 00:43:00,VALID,0,VALID,99.8782,VALID,-0.0169808,VALID,19.1486,VALID,118,VALID,0.949119,
1999-11-05, 00:44:00,VALID,0,VALID,99.8591,VALID,-0.0169808,VALID,19.1458,VALID,90,VALID,1.51795,
1999-11-05, 00:45:00,VALID,0,VALID,99.8718,VALID,-0.0169808,VALID,19.1361,VALID,124,VALID,0.523015,
1999-11-05, 00:46:00,VALID,0,VALID,99.8502,VALID,0.0169808,VALID,19.1458,VALID,260,VALID,0.660567,
1999-11-05, 00:47:00,VALID,0,VALID,99.8388,VALID,0.0169808,VALID,19.1366,VALID,265,VALID,0.580983,
1999-11-05, 00:48:00,VALID,0,VALID,99.8477,VALID,0,VALID,19.1172,VALID,252,VALID,0.384079,
1999-11-05, 00:49:00,VALID,0,VALID,99.8706,VALID,0,VALID,19.1138,VALID,253,VALID,0.104687,
1999-11-05, 00:50:00,VALID,0,VALID,99.8553,VALID,0,VALID,19.1235,VALID,174,VALID,0.273849,
1999-11-05, 00:51:00,VALID,0,VALID,99.868,VALID,0,VALID,19.1167,VALID,179,VALID,0.0863487,
1999-11-05, 00:52:00,VALID,0,VALID,99.8718,VALID,0,VALID,19.117,VALID,240,VALID,0.922492,
1999-11-05, 00:53:00,VALID,0,VALID,99.8642,VALID,-0.0679233,VALID,19.111,VALID,242,VALID,0.7625,
1999-11-05, 00:54:00,VALID,0,VALID,99.8604,VALID,-0.101885,VALID,19.1182,VALID,245,VALID,0.115385,
1999-11-05, 00:55:00,VALID,0,VALID,99.8655,VALID,-0.101885,VALID,19.108,VALID,9,VALID,0.466346,
1999-11-05, 00:56:00,VALID,0,VALID,99.8807,VALID,-0.0849042,VALID,19.1177,VALID,84,VALID,0.591639,
1999-11-05, 00:57:00,VALID,0,VALID,99.8833,VALID,-0.0849042,VALID,19.1309,VALID,109,VALID,0.600929,
1999-11-05, 00:58:00,VALID,0,VALID,99.882,VALID,-0.0509425,VALID,19.1177,VALID,107,VALID,0.950041,
1999-11-05, 00:59:01,VALID,0,VALID,99.8756,VALID,-0.0679233,VALID,19.1304,VALID,83,VALID,0.69112,
1999-11-05, 01:00:00,VALID,0,VALID,99.8655,VALID,-0.0679233,VALID,19.1311,VALID,102,VALID,0.676098,
1999-11-05, 01:01:00,VALID,0,VALID,99.8451,VALID,-0.0849042,VALID,19.1272,VALID,98,VALID,0.898633,
1999-11-05, 01:02:00,VALID,0,VALID,99.8286,VALID,-0.0849042,VALID,19.105,VALID,115,VALID,0.78639,
1999-11-05, 01:03:00,VALID,0,VALID,99.7981,VALID,-0.0849042,VALID,19.0893,VALID,97,VALID,0.839227,
1999-11-05, 01:04:00,VALID,0,VALID,99.8006,VALID,-0.0849042,VALID,19.0784,VALID,89,VALID,1.07998,
1999-11-05, 01:05:00,VALID,0,VALID,99.8159,VALID,-0.0169808,VALID,19.0988,VALID,92,VALID,0.224805,
1999-11-05, 01:06:00,VALID,0,VALID,99.8133,VALID,-0.0679233,VALID,19.0923,VALID,107,VALID,0,
1999-11-05, 01:07:00,VALID,0,VALID,99.8324,VALID,-0.0849042,VALID,19.0988,VALID,94,VALID,0.0586939,
1999-11-05, 01:08:00,VALID,0,VALID,99.8477,VALID,-0.0169808,VALID,19.1008,VALID,78,VALID,0.709459,
1999-11-05, 01:09:00,VALID,0,VALID,99.8299,VALID,0.0339617,VALID,19.1038,VALID,55,VALID,0.396326,
1999-11-05, 01:10:01,VALID,0,VALID,99.8184,VALID,0.0169808,VALID,19.1197,VALID,304,VALID,0.4669,
1999-11-05, 01:11:01,VALID,0,VALID,99.8273,VALID,0,VALID,19.1167,VALID,303,VALID,0.501715,
1999-11-05, 01:12:00,VALID,0,VALID,99.8248,VALID,0.0679233,VALID,19.123,VALID,333,VALID,0.414063,
1999-11-05, 01:13:00,VALID,0,VALID,99.8756,VALID,0.0339617,VALID,19.1389,VALID,327,VALID,0.689648,
1999-11-05, 01:14:00,VALID,0,VALID,99.8845,VALID,0,VALID,19.1451,VALID,353,VALID,0.343544,
1999-11-05, 01:15:00,VALID,0,VALID,99.8833,VALID,0.0339617,VALID,19.1419,VALID,113,VALID,0.780633,
1999-11-05, 01:16:00,VALID,0,VALID,99.896,VALID,0.0679233,VALID,19.1685,VALID,98,VALID,1.22533,
1999-11-05, 01:17:00,VALID,0,VALID,99.9087,VALID,0.0169808,VALID,19.168,VALID,88,VALID,0.787305,
1999-11-05, 01:18:00,VALID,0,VALID,99.8998,VALID,0.0509425,VALID,19.1677,VALID,112,VALID,0.464944,
1999-11-05, 01:19:00,VALID,0,VALID,99.9189,VALID,0.0339617,VALID,19.2035,VALID,98,VALID,0.546074,
1999-11-05, 01:20:00,VALID,0,VALID,99.9138,VALID,0.0509425,VALID,19.21,VALID,145,VALID,0.276182,
1999-11-05, 01:21:00,VALID,0,VALID,99.9163,VALID,0.0849042,VALID,19.1966,VALID,136,VALID,0.637669,
1999-11-05, 01:22:01,VALID,0,VALID,99.9151,VALID,0.0169808,VALID,19.2132,VALID,104,VALID,0.497533,
1999-11-05, 01:23:00,VALID,0,VALID,99.9074,VALID,-0.0169808,VALID,19.2145,VALID,137,VALID,0.100038,
1999-11-05, 01:24:00,VALID,0,VALID,99.8858,VALID,-0.101885,VALID,19.1921,VALID,273,VALID,0,
1999-11-05, 01:25:00,VALID,0,VALID,99.8833,VALID,-0.0509425,VALID,19.1824,VALID,242,VALID,0,
1999-11-05, 01:26:00,VALID,0,VALID,99.8833,VALID,-0.0849042,VALID,19.1854,VALID,295,VALID,0,
1999-11-05, 01:27:00,VALID,0,VALID,99.8845,VALID,-0.0509425,VALID,19.1761,VALID,295,VALID,0,
1999-11-05, 01:28:00,VALID,0,VALID,99.9011,VALID,-0.0679233,VALID,19.1858,VALID,317,VALID,0,
1999-11-05, 01:29:00,VALID,0,VALID,99.9201,VALID,-0.0679233,VALID,19.1955,VALID,328,VALID,0,
1999-11-05, 01:30:00,VALID,0,VALID,99.9596,VALID,-0.0849042,VALID,19.2276,VALID,103,VALID,0.869591,
1999-11-05, 01:31:00,VALID,0,VALID,99.9672,VALID,-0.101885,VALID,19.2604,VALID,168,VALID,0.28726,
1999-11-05, 01:32:00,VALID,0,VALID,99.9379,VALID,-0.0849042,VALID,19.2438,VALID,166,VALID,0.680954,
1999-11-05, 01:33:00,VALID,0,VALID,99.9227,VALID,-0.101885,VALID,19.2309,VALID,90,VALID,0.495988,
1999-11-05, 01:34:00,VALID,0,VALID,99.9405,VALID,-0.0679233,VALID,19.254,VALID,89,VALID,0.349095,
1999-11-05, 01:35:00,VALID,0,VALID,99.9379,VALID,-0.0679233,VALID,19.2473,VALID,93,VALID,0.808117,
1999-11-05, 01:36:00,VALID,0,VALID,99.9507,VALID,-0.0849042,VALID,19.2505,VALID,86,VALID,0.591005,
1999-11-05, 01:37:00,VALID,0,VALID,99.9456,VALID,-0.101885,VALID,19.2572,VALID,3,VALID,0.169922,
1999-11-05, 01:38:00,VALID,0,VALID,99.9456,VALID,-0.0849042,VALID,19.26,VALID,45,VALID,0,
1999-11-05, 01:39:00,VALID,0,VALID,99.9265,VALID,-0.0339617,VALID,19.2468,VALID,324,VALID,0.296258,
1999-11-05, 01:40:00,VALID,0,VALID,99.9201,VALID,-0.0169808,VALID,19.2436,VALID,166,VALID,0.552837,
1999-11-05, 01:41:00,VALID,0,VALID,99.9456,VALID,-0.0679233,VALID,19.2565,VALID,107,VALID,0.550586,
1999-11-05, 01:42:00,VALID,0,VALID,99.9532,VALID,-0.0339617,VALID,19.2831,VALID,75,VALID,0.174279,
1999-11-05, 01:43:00,VALID,0,VALID,99.9519,VALID,-0.0849042,VALID,19.2699,VALID,230,VALID,0.480769,
1999-11-05, 01:44:00,VALID,0,VALID,99.9418,VALID,-0.0339617,VALID,19.2533,VALID,187,VALID,0.550676,
1999-11-05, 01:45:00,VALID,0,VALID,99.9608,VALID,-0.0509425,VALID,19.253,VALID,105,VALID,0.826436,
1999-11-05, 01:46:00,VALID,0,VALID,99.9341,VALID,-0.0169808,VALID,19.2505,VALID,108,VALID,0.961554,
1999-11-05, 01:47:00,VALID,0,VALID,99.9405,VALID,-0.0509425,VALID,19.2373,VALID,357,VALID,0.397866,
1999-11-05, 01:48:00,VALID,0,VALID,99.9367,VALID,-0.0679233,VALID,19.2371,VALID,108,VALID,0.977618,
1999-11-05, 01:49:00,VALID,0,VALID,99.9507,VALID,-0.0339617,VALID,19.2304,VALID,105,VALID,0.899414,
1999-11-05, 01:50:00,VALID,0,VALID,99.9596,VALID,-0.0339617,VALID,19.2239,VALID,166,VALID,0.194285,
1999-11-05, 01:51:00,VALID,0,VALID,99.9329,VALID,-0.0169808,VALID,19.2177,VALID,243,VALID,0.651316,
1999-11-05, 01:52:00,VALID,0,VALID,99.9074,VALID,-0.0169808,VALID,19.1787,VALID,325,VALID,0.810238,
1999-11-05, 01:53:00,VALID,0,VALID,99.9418,VALID,-0.0169808,VALID,19.1854,VALID,57,VALID,0.633398,
1999-11-05, 01:54:01,VALID,0,VALID,99.9418,VALID,-0.0679233,VALID,19.1791,VALID,179,VALID,0.404447,
1999-11-05, 01:55:00,VALID,0,VALID,99.9519,VALID,-0.0509425,VALID,19.1884,VALID,147,VALID,0,
1999-11-05, 01:56:00,VALID,0,VALID,99.9608,VALID,-0.0509425,VALID,19.2022,VALID,98,VALID,0.269003,
1999-11-05, 01:57:00,VALID,0,VALID,99.9214,VALID,-0.0169808,VALID,19.1754,VALID,134,VALID,0.53864,
1999-11-05, 01:58:00,VALID,0,VALID,99.9405,VALID,-0.0339617,VALID,19.1724,VALID,98,VALID,1.35321,
1999-11-05, 01:59:00,VALID,0,VALID,99.9685,VALID,-0.0169808,VALID,19.1819,VALID,91,VALID,0.857851,
1999-11-05, 02:00:00,VALID,0,VALID,99.9761,VALID,-0.0339617,VALID,19.1884,VALID,85,VALID,0.80701,
1999-11-05, 02:01:00,VALID,0,VALID,99.9494,VALID,-0.0679233,VALID,19.1824,VALID,88,VALID,1.44316,
1999-11-05, 02:02:00,VALID,0,VALID,99.9163,VALID,-0.0169808,VALID,19.1431,VALID,88,VALID,1.397,
1999-11-05, 02:03:00,VALID,0,VALID,99.9405,VALID,-0.0509425,VALID,19.1692,VALID,109,VALID,0.39741,
1999-11-05, 02:04:00,VALID,0,VALID,99.9176,VALID,0,VALID,19.1558,VALID,66,VALID,1.16653,
1999-11-05, 02:05:01,VALID,0,VALID,99.9354,VALID,-0.0849042,VALID,19.1558,VALID,97,VALID,1.06113,
1999-11-05, 02:06:01,VALID,0,VALID,99.9418,VALID,-0.0339617,VALID,19.1752,VALID,92,VALID,0.615585,
1999-11-05, 02:07:00,VALID,0,VALID,99.9659,VALID,-0.0169808,VALID,19.1946,VALID,99,VALID,0.288462,
1999-11-05, 02:08:00,VALID,0,VALID,99.9392,VALID,-0.0509425,VALID,19.1884,VALID,156,VALID,0,
1999-11-05, 02:09:00,VALID,0,VALID,99.9443,VALID,-0.0169808,VALID,19.1784,VALID,194,VALID,0.110642,
1999-11-05, 02:10:00,VALID,0,VALID,99.9316,VALID,-0.0169808,VALID,19.1923,VALID,138,VALID,0.518709,
1999-11-05, 02:11:00,VALID,0,VALID,99.9392,VALID,-0.0509425,VALID,19.1752,VALID,64,VALID,0.949695,
1999-11-05, 02:12:00,VALID,0,VALID,99.8998,VALID,-0.0169808,VALID,19.1463,VALID,93,VALID,0.585938,
1999-11-05, 02:13:00,VALID,0,VALID,99.8896,VALID,-0.0169808,VALID,19.1496,VALID,29,VALID,1.41875,
1999-11-05, 02:14:00,VALID,0.2,VALID,99.9138,VALID,0,VALID,19.1555,VALID,114,VALID,1.16735,
1999-11-05, 02:15:00,VALID,0,VALID,99.9049,VALID,-0.0169808,VALID,19.1525,VALID,169,VALID,0.863898,
1999-11-05, 02:16:00,VALID,0.4,VALID,99.9252,VALID,0,VALID,19.1722,VALID,141,VALID,0.702714,
1999-11-05, 02:17:01,VALID,0.2,VALID,99.9354,VALID,0,VALID,19.169,VALID,135,VALID,0.349414,
1999-11-05, 02:18:00,VALID,0.2,VALID,99.9341,VALID,-0.0169808,VALID,19.1724,VALID,125,VALID,0.89383,
1999-11-05, 02:19:00,VALID,0.2,VALID,99.8922,VALID,-0.0169808,VALID,19.1463,VALID,17,VALID,1.66426,
1999-11-05, 02:20:00,VALID,0.2,VALID,99.9125,VALID,0,VALID,19.1396,VALID,91,VALID,1.77238,
1999-11-05, 02:21:00,VALID,0.2,VALID,99.9227,VALID,-0.0169808,VALID,19.1394,VALID,98,VALID,1.55764,
1999-11-05, 02:22:00,VALID,0.2,VALID,99.9354,VALID,0,VALID,19.1458,VALID,60,VALID,0.435742,
1999-11-05, 02:23:00,VALID,0.2,VALID,99.929,VALID,0,VALID,19.1428,VALID,30,VALID,0.440549,
1999-11-05, 02:24:00,VALID,0,VALID,99.9125,VALID,-0.0339617,VALID,19.1334,VALID,108,VALID,1.20861,
1999-11-05, 02:25:00,VALID,0,VALID,99.9443,VALID,0,VALID,19.1396,VALID,69,VALID,0.916797,
1999-11-05, 02:26:00,VALID,0.2,VALID,99.9608,VALID,-0.0169808,VALID,19.1533,VALID,141,VALID,0.470806,
1999-11-05, 02:27:00,VALID,0.2,VALID,99.9557,VALID,0,VALID,19.1334,VALID,21,VALID,0.566817,
1999-11-05, 02:28:01,VALID,0.2,VALID,99.9494,VALID,-0.0169808,VALID,19.1403,VALID,236,VALID,0.706003,
1999-11-05, 02:29:00,VALID,0.2,VALID,99.9507,VALID,-0.0339617,VALID,19.111,VALID,276,VALID,0.463672,
1999-11-05, 02:30:00,VALID,0,VALID,99.9418,VALID,-0.0339617,VALID,19.0973,VALID,198,VALID,0.682091,
1999-11-05, 02:31:00,VALID,0.2,VALID,99.9672,VALID,-0.0339617,VALID,19.114,VALID,176,VALID,0.477965,
1999-11-05, 02:32:00,VALID,0,VALID,99.9761,VALID,-0.0339617,VALID,19.107,VALID,282,VALID,0.57728,
1999-11-05, 02:33:00,VALID,0,VALID,99.971,VALID,0,VALID,19.1142,VALID,132,VALID,1.09227,
1999-11-05, 02:34:00,VALID,0,VALID,99.9761,VALID,0,VALID,19.1237,VALID,333,VALID,0.514391,
1999-11-05, 02:35:00,VALID,0,VALID,99.9748,VALID,-0.0169808,VALID,19.1269,VALID,279,VALID,0.123857,
1999-11-05, 02:36:00,VALID,0,VALID,99.9735,VALID,-0.0169808,VALID,19.1205,VALID,226,VALID,0.00929054,
1999-11-05, 02:37:00,VALID,0,VALID,99.9786,VALID,-0.0169808,VALID,19.1237,VALID,107,VALID,0.661914,
1999-11-05, 02:38:00,VALID,0,VALID,99.9941,VALID,0,VALID,19.1306,VALID,12,VALID,0.758635,
1999-11-05, 02:39:01,VALID,0,VALID,99.998,VALID,0.0169808,VALID,19.1165,VALID,319,VALID,0.452097,
1999-11-05, 02:40:00,VALID,0,VALID,99.9977,VALID,0,VALID,19.1172,VALID,171,VALID,0.514186,
1999-11-05, 02:41:00,VALID,0,VALID,100,VALID,0.0509425,VALID,19.1364,VALID,114,VALID,1.05898,
1999-11-05, 02:42:00,VALID,0,VALID,99.999,VALID,0.0339617,VALID,19.1428,VALID,336,VALID,0.439704,
1999-11-05, 02:43:00,VALID,0,VALID,100,VALID,-0.0169808,VALID,19.1297,VALID,265,VALID,0.113181,
1999-11-05, 02:44:00,VALID,0,VALID,99.998,VALID,0.0169808,VALID,19.11,VALID,280,VALID,0.524071,
1999-11-05, 02:45:00,VALID,0,VALID,99.9919,VALID,0,VALID,19.1267,VALID,139,VALID,0.274493,
1999-11-05, 02:46:00,VALID,0,VALID,99.9967,VALID,0,VALID,19.1205,VALID,218,VALID,1.0183,
1999-11-05, 02:47:00,VALID,0,VALID,99.9896,VALID,0.0169808,VALID,19.1138,VALID,12,VALID,1.35175,
1999-11-05, 02:48:00,VALID,0,VALID,100,VALID,0,VALID,19.1334,VALID,54,VALID,1.39126,
1999-11-05, 02:49:00,VALID,0,VALID,100,VALID,0.0169808,VALID,19.1525,VALID,92,VALID,1.35195,
1999-11-05, 02:50:01,VALID,0,VALID,99.9969,VALID,0,VALID,19.1431,VALID,95,VALID,1.30099,
1999-11-05, 02:51:00,VALID,0,VALID,99.9898,VALID,0,VALID,19.1426,VALID,98,VALID,1.22471,
1999-11-05, 02:52:00,VALID,0,VALID,100,VALID,-0.0169808,VALID,19.1491,VALID,69,VALID,0.411184,
1999-11-05, 02:53:00,VALID,0,VALID,100,VALID,-0.0679233,VALID,19.16,VALID,252,VALID,0.0236328,
1999-11-05, 02:54:00,VALID,0,VALID,99.998,VALID,-0.101885,VALID,19.1635,VALID,45,VALID,0.39383,
1999-11-05, 02:55:00,VALID,0,VALID,99.999,VALID,-0.101885,VALID,19.1736,VALID,66,VALID,0.996995,
1999-11-05, 02:56:00,VALID,0,VALID,100,VALID,-0.101885,VALID,19.1799,VALID,103,VALID,1.38133,
1999-11-05, 02:57:00,VALID,0,VALID,100,VALID,-0.101885,VALID,19.1861,VALID,113,VALID,0.338471,
1999-11-05, 02:58:00,VALID,0,VALID,100,VALID,-0.0679233,VALID,19.1896,VALID,71,VALID,0.698602,
1999-11-05, 02:59:01,VALID,0,VALID,99.9934,VALID,-0.101885,VALID,19.1836,VALID,94,VALID,0.624047,
1999-11-05, 03:00:00,VALID,0,VALID,100,VALID,-0.0849042,VALID,19.1796,VALID,77,VALID,0.723395,
1999-11-05, 03:01:01,VALID,0,VALID,99.9921,VALID,-0.0849042,VALID,19.1801,VALID,125,VALID,1.00176,
1999-11-05, 03:02:00,VALID,0,VALID,99.9977,VALID,-0.101885,VALID,19.1732,VALID,118,VALID,1.19038,
1999-11-05, 03:03:00,VALID,0,VALID,100,VALID,-0.101885,VALID,19.1963,VALID,98,VALID,1.30201,
1999-11-05, 03:04:00,VALID,0,VALID,99.999,VALID,-0.0509425,VALID,19.1926,VALID,181,VALID,0.941201,
1999-11-05, 03:05:00,VALID,0,VALID,99.999,VALID,-0.0679233,VALID,19.1861,VALID,16,VALID,0.979688,
1999-11-05, 03:06:00,VALID,0,VALID,99.9969,VALID,-0.101885,VALID,19.1732,VALID,82,VALID,0.882612,
1999-11-05, 03:07:00,VALID,0,VALID,99.999,VALID,-0.101885,VALID,19.1896,VALID,180,VALID,0.662861,
1999-11-05, 03:08:00,VALID,0,VALID,99.999,VALID,-0.0339617,VALID,19.1884,VALID,141,VALID,0.851563,
1999-11-05, 03:09:00,VALID,0,VALID,100,VALID,0,VALID,19.2045,VALID,31,VALID,0.543919,
1999-11-05, 03:10:01,VALID,0,VALID,99.9947,VALID,0.0169808,VALID,19.1879,VALID,36,VALID,0.837993,
1999-11-05, 03:11:01,VALID,0,VALID,99.999,VALID,0.0339617,VALID,19.1913,VALID,93,VALID,1.7016,
1999-11-05, 03:12:01,VALID,0,VALID,99.9977,VALID,0,VALID,19.1943,VALID,86,VALID,1.18011,
1999-11-05, 03:13:00,VALID,0,VALID,100,VALID,0,VALID,19.201,VALID,38,VALID,0.378906,
1999-11-05, 03:14:00,VALID,0,VALID,100,VALID,0,VALID,19.2075,VALID,80,VALID,1.15399,
1999-11-05, 03:15:00,VALID,0,VALID,100,VALID,0,VALID,19.2336,VALID,45,VALID,0.55222,
1999-11-05, 03:16:00,VALID,0,VALID,100,VALID,0.0339617,VALID,19.2301,VALID,28,VALID,0.897615,
1999-11-05, 03:17:00,VALID,0,VALID,100,VALID,0.0169808,VALID,19.2364,VALID,60,VALID,1.10391,
1999-11-05, 03:18:00,VALID,0,VALID,100,VALID,0.0169808,VALID,19.2465,VALID,151,VALID,0.39383,
1999-11-05, 03:19:00,VALID,0,VALID,100,VALID,0,VALID,19.2458,VALID,176,VALID,0.561498,
1999-11-05, 03:20:00,VALID,0,VALID,100,VALID,0.0169808,VALID,19.2461,VALID,142,VALID,0.98353,
1999-11-05, 03:21:00,VALID,0,VALID,100,VALID,0.0509425,VALID,19.259,VALID,29,VALID,0.924409,
1999-11-05, 03:22:01,VALID,0,VALID,100,VALID,-0.0169808,VALID,19.2562,VALID,303,VALID,0.383018,
1999-11-05, 03:23:01,VALID,0,VALID,100,VALID,-0.0509425,VALID,19.2667,VALID,54,VALID,1.64101,
1999-11-05, 03:24:00,VALID,0,VALID,100,VALID,-0.101885,VALID,19.2535,VALID,265,VALID,1.08742,
1999-11-05, 03:25:00,VALID,0,VALID,99.999,VALID,-0.101885,VALID,19.254,VALID,41,VALID,1.78281,
1999-11-05, 03:26:00,VALID,0,VALID,100,VALID,-0.0849042,VALID,19.2537,VALID,100,VALID,1.79914,
1999-11-05, 03:27:00,VALID,0,VALID,99.998,VALID,-0.0849042,VALID,19.2637,VALID,77,VALID,1.41118,
1999-11-05, 03:28:00,VALID,0,VALID,100,VALID,-0.101885,VALID,19.2828,VALID,84,VALID,0.734992,
1999-11-05, 03:29:00,VALID,0,VALID,99.9941,VALID,-0.0849042,VALID,19.296,VALID,79,VALID,0.891406,
1999-11-05, 03:30:00,VALID,0,VALID,99.9847,VALID,-0.0849042,VALID,19.2895,VALID,168,VALID,0.174279,
1999-11-05, 03:31:00,VALID,0,VALID,99.9774,VALID,-0.0849042,VALID,19.293,VALID,160,VALID,0.616186,
1999-11-05, 03:32:00,VALID,0,VALID,99.9685,VALID,-0.0849042,VALID,19.2831,VALID,146,VALID,0.802787,
1999-11-05, 03:33:00,VALID,0,VALID,99.9825,VALID,-0.0679233,VALID,19.2923,VALID,163,VALID,0.551943,
1999-11-05, 03:34:00,VALID,0,VALID,99.9659,VALID,-0.0849042,VALID,19.296,VALID,122,VALID,0.897615,
1999-11-05, 03:35:00,VALID,0,VALID,99.9921,VALID,-0.0849042,VALID,19.3022,VALID,101,VALID,1.11433,
1999-11-05, 03:36:00,VALID,0,VALID,99.971,VALID,-0.0679233,VALID,19.2988,VALID,212,VALID,0.751056,
1999-11-05, 03:37:00,VALID,0,VALID,99.9685,VALID,-0.101885,VALID,19.306,VALID,142,VALID,1.12324,
1999-11-05, 03:38:00,VALID,0,VALID,99.9685,VALID,-0.0509425,VALID,19.3017,VALID,261,VALID,0.652138,
1999-11-05, 03:39:00,VALID,0,VALID,99.957,VALID,-0.0679233,VALID,19.308,VALID,288,VALID,0.768092,
1999-11-05, 03:40:00,VALID,0,VALID,99.987,VALID,-0.0339617,VALID,19.3045,VALID,84,VALID,1.47985,
1999-11-05, 03:41:00,VALID,0,VALID,99.9908,VALID,-0.0509425,VALID,19.3308,VALID,98,VALID,0.56582,
1999-11-05, 03:42:00,VALID,0,VALID,99.986,VALID,-0.0169808,VALID,19.3207,VALID,210,VALID,0.498998,
1999-11-05, 03:43:00,VALID,0,VALID,99.9758,VALID,-0.0679233,VALID,19.3239,VALID,182,VALID,1.23357,
1999-11-05, 03:44:00,VALID,0,VALID,99.9896,VALID,-0.0509425,VALID,19.3271,VALID,111,VALID,1.27998,
1999-11-05, 03:45:00,VALID,0,VALID,99.9924,VALID,-0.0509425,VALID,19.3338,VALID,195,VALID,1.06905,
1999-11-05, 03:46:00,VALID,0,VALID,99.9875,VALID,-0.0339617,VALID,19.3343,VALID,270,VALID,1.46176,
1999-11-05, 03:47:00,VALID,0,VALID,99.9947,VALID,-0.0679233,VALID,19.3244,VALID,128,VALID,1.3186,
1999-11-05, 03:48:00,VALID,0,VALID,99.999,VALID,-0.0339617,VALID,19.3567,VALID,95,VALID,1.81461,
1999-11-05, 03:49:00,VALID,0,VALID,100,VALID,-0.0339617,VALID,19.3699,VALID,92,VALID,1.01914,
1999-11-05, 03:50:00,VALID,0,VALID,99.9964,VALID,-0.0509425,VALID,19.353,VALID,24,VALID,1.39659,
1999-11-05, 03:51:00,VALID,0,VALID,99.985,VALID,-0.0509425,VALID,19.3435,VALID,48,VALID,1.10876,
1999-11-05, 03:52:00,VALID,0,VALID,99.9908,VALID,-0.0339617,VALID,19.3599,VALID,101,VALID,0.568257,
1999-11-05, 03:53:00,VALID,0,VALID,99.986,VALID,-0.0509425,VALID,19.3764,VALID,141,VALID,0.809961,
1999-11-05, 03:54:01,VALID,0,VALID,99.9921,VALID,-0.0679233,VALID,19.3764,VALID,121,VALID,1.45252,
1999-11-05, 03:55:00,VALID,0,VALID,99.9952,VALID,-0.0339617,VALID,19.3925,VALID,67,VALID,0.832933,
1999-11-05, 03:56:00,VALID,0,VALID,99.9771,VALID,-0.0679233,VALID,19.3764,VALID,25,VALID,1.20186,
1999-11-05, 03:57:00,VALID,0,VALID,99.9672,VALID,-0.0679233,VALID,19.3659,VALID,147,VALID,1.06461,
1999-11-05, 03:58:00,VALID,0,VALID,99.9812,VALID,-0.0679233,VALID,19.3627,VALID,23,VALID,1.03392,
1999-11-05, 03:59:00,VALID,0,VALID,99.9875,VALID,-0.0169808,VALID,19.3692,VALID,112,VALID,1.55697,
1999-11-05, 04:00:00,VALID,0,VALID,99.9685,VALID,0,VALID,19.3622,VALID,91,VALID,2.45376,
1999-11-05, 04:01:00,VALID,0,VALID,99.9634,VALID,-0.0509425,VALID,19.3696,VALID,6,VALID,0.720898,
1999-11-05, 04:02:00,VALID,0,VALID,99.9608,VALID,-0.0509425,VALID,19.3624,VALID,114,VALID,1.49034,
1999-11-05, 04:03:00,VALID,0,VALID,99.9608,VALID,-0.0509425,VALID,19.3624,VALID,325,VALID,1.62007,
1999-11-05, 04:04:00,VALID,0,VALID,99.9468,VALID,0,VALID,19.3627,VALID,192,VALID,1.17331,
1999-11-05, 04:05:01,VALID,0,VALID,99.957,VALID,-0.0679233,VALID,19.3793,VALID,105,VALID,1.49297,
1999-11-05, 04:06:01,VALID,0,VALID,99.9621,VALID,-0.0509425,VALID,19.3828,VALID,105,VALID,0.884615,